Weather in Tutayevo

Russia / Republic of Tatarstan     55°10′57″N   48°07′54″E
temp.,
°C
wind,
m/s
gust,
m/s
humid.,
%
clouds,
%
prec.,
mm/h
press.,
hPa
HPBL,
m
8 may, sat
sat800:00+9nnw4694100 3.7 1016378
03:00+8nne4892100 5.0 1017404
06:00+8nne3493100 0.3 1017291
09:00+9nne2392100 0.5 1018277
12:00+10ne238252 0.0 1017466
15:00+14se236724 0.1 1016835
18:00+14ese3576100 0.0 1014213
21:00+10ese310895 0.0 1013199
9 may, sun
sun900:00+10se41281100 0.0 1012238
03:00+9sse348162 0.0 101263
06:00+11sse4107871 0.0 1012295
09:00+16s61058100 0.0 1012554
12:00+19sse6952100 0.0 1012793
15:00+20sse71157100 0.0 10121203
18:00+19sse61263100 0.0 1011432
21:00+14w1195100 5.3 101423
10 may, mon
mon1000:00+12wnw4796100 0.7 1015212
03:00+11wnw4793100 0.8 1018308
06:00+10nw4689100 0.1 1019365
09:00+9nnw6786100 0.2 1021389
12:00+11n6777100 0.0 1023532
15:00+11n7876100 0.0 1025581
18:00+10n6882100 0.0 1026496
21:00+9nne61289100 0.0 1027452
11 may, tue
tue1100:00+7nne51090100 0.0 1028300
03:00+7nne5119078 0.0 1028310
06:00+8ne598698 0.0 1030351
09:00+13ne5668100 0.0 1030572
12:00+16ne5659100 0.0 1030776
15:00+18ne5554100 0.0 1029948
18:00+16ne366542 0.0 1030187
21:00+12ne366898 0.0 103085
12 may, wed
wed1200:00+10ne48664 0.0 1030139
03:00+9ene39730 0.0 1030143
06:00+11ene39660 0.0 1031260
09:00+17e56545 0.0 1030478
12:00+19e55455 0.0 1030875
15:00+20e55407 0.0 1029925
18:00+18ene48571 0.0 1028239
21:00+13e35611 0.0 102870